Location: Unspecified
(0.0000°N, 0.0000°E)
Time: 22:07:17
(UTC+00:00)

Courier 1B - Visible Passes

Search period start: 23 April 2014 00:00
Search period end: 03 May 2014 00:00
Orbit: 963 x 1209 km, 28.3° (Epoch: 22 April)

Date Brightness Start Highest point End Pass type
(mag) Time Alt. Az. Time Alt. Az. Time Alt. Az.
23 Apr 9.9 04:52:30 10° S 04:55:50 13° SSE 04:59:13 10° SE visible
23 Apr 8.6 18:18:43 10° NNW 18:24:26 30° NNE 18:29:59 10° E visible
23 Apr 7.8 20:12:02 10° WNW 20:17:24 60° W 20:17:24 60° W visible
24 Apr 7.4 19:18:15 10° NW 19:24:52 79° NNE 19:27:17 41° ESE visible
24 Apr 10.0 21:13:32 10° W 21:14:12 13° W 21:14:12 13° W visible
25 Apr 9.6 04:57:21 10° SSW 05:02:51 22° SSE 05:08:32 10° ESE visible
25 Apr 7.8 18:24:35 10° NW 18:31:09 56° NNE 18:37:11 11° ESE visible
25 Apr 8.6 20:19:10 10° W 20:24:06 36° SW 20:24:06 36° SW visible
26 Apr 9.7 04:05:45 13° S 04:08:46 16° SSE 04:13:06 10° ESE visible
26 Apr 7.9 19:25:00 10° WNW 19:31:29 56° SSW 19:34:00 35° SSE visible
27 Apr 10.0 03:15:36 11° SSE 03:15:36 11° SSE 03:16:47 10° SE visible
27 Apr 8.9 05:02:56 10° SW 05:09:36 37° SSE 05:16:34 10° E visible
27 Apr 7.6 18:30:59 10° WNW 18:37:47 79° SSW 18:43:53 12° SE visible
27 Apr 9.3 20:27:08 10° WSW 20:30:48 20° SW 20:30:48 20° SW visible
28 Apr 9.2 04:12:23 20° S 04:15:39 27° SSE 04:21:48 10° E visible
28 Apr 8.8 19:32:27 10° W 19:38:09 30° SSW 19:40:41 23° S visible
29 Apr 9.5 03:22:16 19° SSE 03:22:16 19° SSE 03:26:42 10° ESE visible
29 Apr 8.1 05:09:11 11° SW 05:16:11 65° SSE 05:23:47 10° ENE visible
29 Apr 8.4 18:38:00 10° W 18:44:24 42° SSW 18:50:32 10° SE visible
29 Apr 9.9 20:36:42 10° SW 20:37:27 11° SW 20:37:27 11° SW visible
30 Apr 8.4 04:19:04 29° SSW 04:22:18 47° SSE 04:29:28 10° ENE visible
30 Apr 9.4 19:40:55 10° WSW 19:45:00 17° SSW 19:47:17 14° S visible
01 May 8.8 03:28:57 33° SE 03:28:57 33° SE 03:34:55 10° E visible
01 May 7.9 05:15:52 12° WSW 05:22:43 74° NNW 05:30:21 10° NE visible
01 May 9.2 18:45:49 10° W 18:51:07 24° SSW 18:56:15 10° SSE visible
02 May 10.0 02:38:49 14° ESE 02:38:49 14° ESE 02:40:06 10° E visible
02 May 7.7 04:25:43 37° SW 04:28:52 82° SSE 04:36:23 10° ENE visible
